Flag for U.S.A. Weather past 2 weeks in Passaic, New Jersey, U.S.A.

Now
49 °F

Clear.


Feels Like: 46 °F
Forecast: 38 / 63 °F
Wind: 6 mph from Northwest

Location: Teterboro Airport


UV Index: 3 (Moderate)

Visibility: 10 mi


Pressure: 30.02 "Hg

Humidity: 28%

Dew point: 17 °F

Location of PassaicLocation

Historic Weather in Passaic

°F

Passaic temperature yesterday

Maximum temperature yesterday: 64 °F (at 3:51 PM)
Minimum temperature yesterday: 43 °F (at 5:51 AM)
Average temperature yesterday: 53 °F

Past Weeks' High & Low Weather Summary

 TemperatureHumidityPressure
High81 °F (Apr 13, 2:51 PM)88% (Apr 15, 1:01 PM)30.73 "Hg (Apr 15, 1:01 PM)
Low33 °F (Apr 16, 5:51 AM)12% (Apr 21, 3:51 PM)29.49 "Hg (Apr 23, 1:51 AM)
Average55 °F49%30.08 "Hg
* Reported Apr 10 12:51 AM — Apr 25 12:51 AM, Passaic, Weather by CustomWeather, © 2014

Note: Actual official high and low records may vary slightly from our data, if they occured in-between our weather recording intervals... More about our weather records

Advertising

Historic Weather Conditions — Data for Previous 24 hours

 ConditionsComfort  
Time TempWeatherWind HumidityBarometerVisibility
12:51 AM
Apr 25
49 °FClear.6 mph28%30.02 "Hg10 mi
11:51 PM
Apr 24
51 °FClear.12 mph25%30.01 "Hg10 mi
10:51 PM53 °FClear.8 mph21%30.01 "Hg10 mi
9:51 PM55 °FClear.13 mph18%29.98 "Hg10 mi
8:51 PM57 °FClear.12 mph16%29.97 "Hg10 mi
7:51 PM58 °FSunny.16 mph15%29.94 "Hg10 mi
6:51 PM60 °FSunny.17 mph15%29.90 "Hg10 mi
5:51 PM63 °FSunny.16 mph15%29.88 "Hg10 mi
4:51 PM63 °FSunny.21 mph14%29.86 "Hg10 mi
3:51 PM64 °FSunny.15 mph15%29.86 "Hg10 mi
2:51 PM62 °FSunny.17 mph17%29.87 "Hg10 mi
1:51 PM61 °FSunny.16 mph19%29.87 "Hg10 mi
12:51 PM58 °FSunny.20 mph18%29.89 "Hg9 mi
11:51 AM56 °FSunny.20 mph21%29.91 "Hg10 mi
10:51 AM54 °FSunny.23 mph22%29.91 "Hg10 mi
9:51 AM51 °FSunny.22 mph25%29.90 "Hg10 mi
8:51 AM48 °FSunny.21 mph30%29.91 "Hg10 mi
7:51 AM46 °FSunny.16 mph33%29.90 "Hg10 mi
6:51 AM44 °FClear.9 mph35%29.89 "Hg10 mi
5:51 AM43 °FClear.7 mph40%29.86 "Hg10 mi
4:51 AM44 °FClear.12 mph41%29.84 "Hg10 mi
3:51 AM44 °FClear.9 mph47%29.84 "Hg10 mi
2:51 AM44 °FClear.8 mph53%29.84 "Hg10 mi
Weather by CustomWeather, © 2014

See weather overview